CW8019 Jupiter FL US current weather conditions

sailwx.info

Wind from 124 at 1 knots gusting 6

Air temperature 26.1° C
Dewpoint 22.2° C

Last reported at 2019-Oct-16 04:04 UTC.
Time now 2019-Oct-16 04:23 UTC

Location: N 26°56' W 080°07'.
View on Google Maps.

See reports from other nearby stations

  
Tides and Currents Weather Stations Pressure Air Temp Water Temp Dewpoint Dewpoint Depression Visibility Wind Speed Wind Dir Waves Ship Positions
date/time (UTC)wind fromknots sea level pressurealtimeterstation pressurevisibilityair tempwater tempwave heightnotes
2019-Oct-16 04:09 110 1 gusting 5 26.1
2019-Oct-16 04:04 124 1 gusting 6 26.1
2019-Oct-16 03:59 117 1 gusting 2 26.1
2019-Oct-16 03:49 138 1 gusting 4 26.7
2019-Oct-16 03:44 125 2 gusting 6 26.7
2019-Oct-16 03:29 090 2 gusting 6 26.7
2019-Oct-16 03:19 099 2 gusting 6 26.7
2019-Oct-16 03:14 112 2 gusting 6 26.7
2019-Oct-16 03:04 092 2 gusting 6 26.7
2019-Oct-16 02:59 115 4 gusting 8 26.7
2019-Oct-16 02:54 105 2 gusting 6 26.7
2019-Oct-16 02:49 129 2 gusting 6 26.7
2019-Oct-16 02:44 102 2 gusting 7 26.7
2019-Oct-16 02:39 111 4 gusting 7 26.7
2019-Oct-16 02:34 112 3 gusting 7 26.7
2019-Oct-16 02:24 096 4 gusting 6 26.7
2019-Oct-16 02:19 098 3 gusting 7 26.7
2019-Oct-16 02:14 106 2 gusting 7 26.7
2019-Oct-16 02:04 116 2 gusting 7 26.7
2019-Oct-16 01:59 124 3 gusting 7 26.7
2019-Oct-16 01:54 091 1 gusting 5 26.7
2019-Oct-16 01:49 096 1 gusting 6 26.7
2019-Oct-16 01:39 098 1 gusting 5 26.7
2019-Oct-16 01:34 097 2 gusting 2 26.7
2019-Oct-16 01:29 106 1 gusting 5 26.7
2019-Oct-16 01:24 109 1 gusting 2 26.1
2019-Oct-16 01:14 110 26.7
2019-Oct-16 01:09 110 1 gusting 5 26.7
2019-Oct-16 00:59 118 0 gusting 1 26.7
2019-Oct-16 00:49 113 2 gusting 5 26.7
2019-Oct-16 00:39 100 2 gusting 6 26.7
2019-Oct-16 00:29 106 2 gusting 5 26.7
2019-Oct-16 00:19 126 2 gusting 5 26.7
2019-Oct-16 00:14 126 2 gusting 6 26.7
2019-Oct-16 00:09 110 1 gusting 5 26.7
2019-Oct-15 23:59 138 3 gusting 6 26.7
2019-Oct-15 23:54 104 2 gusting 4 26.7
2019-Oct-15 23:49 099 2 gusting 4 26.7
2019-Oct-15 23:39 116 3 gusting 6 26.7
2019-Oct-15 23:34 115 2 gusting 6 27.2
2019-Oct-15 23:29 105 2 gusting 6 27.2
2019-Oct-15 23:19 091 1 gusting 4 27.2
2019-Oct-15 23:14 094 1 gusting 6 27.2
2019-Oct-15 23:09 109 1 gusting 5 27.2
2019-Oct-15 23:04 103 2 gusting 6 27.2
2019-Oct-15 22:54 102 3 gusting 6 27.2
2019-Oct-15 22:49 100 4 gusting 6 27.2
2019-Oct-15 22:44 096 4 gusting 6 27.2
2019-Oct-15 22:39 094 3 gusting 6 27.8
2019-Oct-15 22:34 097 2 gusting 5 27.8
2019-Oct-15 22:29 101 1 gusting 4 27.8
2019-Oct-15 21:59 084 5 gusting 10 28.3
2019-Oct-15 21:49 111 4 gusting 8 28.3
2019-Oct-15 21:44 106 5 gusting 10 28.3
2019-Oct-15 21:39 112 5 gusting 8 28.9
2019-Oct-15 21:34 096 5 gusting 7 28.9
2019-Oct-15 21:14 080 2 gusting 8 28.9
2019-Oct-15 21:09 098 6 gusting 10 28.9
2019-Oct-15 21:04 111 4 gusting 6 28.9
2019-Oct-15 20:59 088 4 gusting 6 28.9
2019-Oct-15 20:54 097 4 gusting 7 28.9
2019-Oct-15 20:49 129 4 gusting 7 29.4
2019-Oct-15 20:44 105 2 gusting 6 29.4
2019-Oct-15 20:39 089 3 gusting 8 28.9
2019-Oct-15 20:34 070 2 gusting 7 30.0
2019-Oct-15 20:24 096 3 gusting 8 29.4
2019-Oct-15 20:19 090 2 gusting 6 28.9
2019-Oct-15 20:14 084 1 gusting 8 28.9
2019-Oct-15 20:09 083 4 gusting 8 30.0
2019-Oct-15 19:59 105 2 gusting 10 30.0
2019-Oct-15 19:49 100 2 gusting 7 29.4
2019-Oct-15 19:44 087 5 gusting 8 29.4
2019-Oct-15 19:34 080 5 gusting 10 29.4
2019-Oct-15 19:29 096 4 gusting 10 30.6
2019-Oct-15 19:24 087 4 gusting 7 30.0
2019-Oct-15 19:19 086 5 gusting 7 30.0
2019-Oct-15 19:14 044 1 gusting 7 30.0
2019-Oct-15 19:09 097 2 gusting 7 30.6
2019-Oct-15 19:04 110 5 gusting 10 30.0
2019-Oct-15 18:54 082 2 gusting 6 30.6
2019-Oct-15 18:39 042 2 gusting 6 30.0
2019-Oct-15 18:34 077 5 gusting 10 29.4
2019-Oct-15 18:29 091 6 gusting 10 30.0
2019-Oct-15 18:19 085 5 gusting 10 30.0
2019-Oct-15 18:14 103 6 gusting 10 30.0
2019-Oct-15 18:09 104 5 gusting 8 30.6
2019-Oct-15 18:04 090 5 gusting 10 30.6
2019-Oct-15 17:59 091 4 gusting 7 31.1
2019-Oct-15 17:54 084 4 gusting 10 30.0
2019-Oct-15 17:49 094 3 gusting 8 30.0
2019-Oct-15 17:44 123 4 gusting 7 29.4
2019-Oct-15 17:39 121 5 gusting 11 30.0
2019-Oct-15 17:29 088 4 gusting 8 30.0
2019-Oct-15 17:19 065 2 gusting 8 30.0
2019-Oct-15 17:14 079 5 gusting 7 30.0
2019-Oct-15 17:09 081 3 gusting 10 30.0
2019-Oct-15 16:59 137 3 gusting 6 29.4
2019-Oct-15 16:54 117 5 gusting 10 29.4
2019-Oct-15 16:44 138 2 gusting 6 28.9
2019-Oct-15 16:34 119 3 gusting 7 30.0
2019-Oct-15 16:29 101 2 gusting 7 30.0
2019-Oct-15 16:19 060 4 gusting 7 30.0
2019-Oct-15 16:14 098 1 gusting 7 30.0
2019-Oct-15 16:09 030 2 gusting 6 30.6
2019-Oct-15 16:04 079 2 gusting 6 30.0
2019-Oct-15 15:54 094 6 gusting 10 29.4
2019-Oct-15 15:49 072 4 gusting 7 30.0
2019-Oct-15 15:34 093 4 gusting 7 29.4
2019-Oct-15 03:39 082 2 gusting 5 25.6
2019-Oct-15 03:24 094 1 gusting 6 25.6
2019-Oct-15 03:14 092 1 gusting 6 26.1
2019-Oct-15 03:09 082 1 gusting 5 26.1
2019-Oct-15 03:04 089 1 gusting 2 26.1
2019-Oct-15 02:54 086 1 gusting 5 26.1
2019-Oct-15 02:49 086 2 gusting 6 26.1
2019-Oct-15 02:44 084 4 gusting 7 26.1
2019-Oct-15 02:39 062 1 gusting 2 26.1
2019-Oct-15 02:24 085 2 gusting 6 26.1
2019-Oct-15 02:19 079 1 gusting 6 26.1
2019-Oct-15 02:09 088 2 gusting 8 26.1
2019-Oct-15 02:04 074 2 gusting 7 26.1
2019-Oct-15 01:54 072 4 gusting 6 26.1
2019-Oct-15 01:49 080 2 gusting 6 26.1
2019-Oct-15 01:39 069 2 gusting 7 26.7
2019-Oct-15 01:29 076 3 gusting 6 26.7
2019-Oct-15 01:19 090 2 gusting 7 26.7
2019-Oct-15 01:09 096 2 gusting 6 26.7
2019-Oct-15 01:04 088 4 gusting 6 26.7
2019-Oct-15 00:59 093 2 gusting 6 26.7
2019-Oct-15 00:49 089 2 gusting 6 26.7
2019-Oct-15 00:44 079 2 gusting 7 26.7
2019-Oct-15 00:24 072 1 gusting 6 26.7
2019-Oct-15 00:19 085 3 gusting 6 26.7
2019-Oct-15 00:14 093 3 gusting 7 26.7
2019-Oct-15 00:09 091 2 gusting 6 26.7
2019-Oct-14 23:59 098 2 gusting 7 26.7
2019-Oct-14 23:54 098 2 gusting 5 26.7
2019-Oct-14 23:49 091 2 gusting 6 26.7
2019-Oct-14 23:44 094 2 gusting 6 26.7
2019-Oct-14 23:39 084 2 gusting 6 26.7
2019-Oct-14 23:34 097 3 gusting 7 26.7
2019-Oct-14 23:14 084 2 gusting 6 26.7
2019-Oct-14 23:09 098 4 gusting 10 26.7
2019-Oct-14 23:04 095 6 gusting 10 26.7
2019-Oct-14 22:54 086 2 gusting 8 27.2
2019-Oct-14 22:49 087 3 gusting 8 27.2
2019-Oct-14 22:29 087 4 gusting 6 27.8
2019-Oct-14 22:24 078 3 gusting 8 27.8
2019-Oct-14 22:19 085 2 gusting 6 27.8
2019-Oct-14 22:14 049 1 gusting 7 28.3
2019-Oct-14 22:09 095 3 gusting 7 28.3
2019-Oct-14 22:04 097 2 gusting 8 28.3
2019-Oct-14 21:34 110 3 gusting 8 28.3
2019-Oct-14 21:29 089 3 gusting 6 28.3
2019-Oct-14 21:24 080 2 gusting 7 28.3
2019-Oct-14 21:19 097 5 gusting 7 28.3
2019-Oct-14 21:14 065 4 gusting 8 28.9
2019-Oct-14 21:09 106 2 gusting 7 28.9
2019-Oct-14 21:04 104 6 gusting 10 28.9
2019-Oct-14 20:59 093 3 gusting 6 29.4
2019-Oct-14 20:54 092 4 gusting 7 30.0
2019-Oct-14 20:44 094 6 gusting 11 30.0
2019-Oct-14 20:39 088 2 gusting 7 30.0
2019-Oct-14 20:34 090 3 gusting 7 29.4
2019-Oct-14 20:29 099 5 gusting 8 30.0
2019-Oct-14 20:24 099 6 gusting 10 29.4
2019-Oct-14 20:14 077 5 gusting 10 30.0
2019-Oct-14 20:04 096 5 gusting 8 30.0
2019-Oct-14 19:49 113 5 gusting 8 29.4
2019-Oct-14 19:44 091 4 gusting 8 30.6
2019-Oct-14 19:39 098 6 gusting 11 30.6
2019-Oct-14 19:34 100 5 gusting 10 31.1
2019-Oct-14 19:29 084 4 gusting 10 30.6
2019-Oct-14 19:24 085 4 gusting 10 30.0
2019-Oct-14 19:19 122 6 gusting 8 30.6
2019-Oct-14 19:14 112 5 gusting 11 30.6
2019-Oct-14 19:09 088 6 gusting 12 30.6
2019-Oct-14 19:04 086 6 gusting 10 30.0
2019-Oct-14 18:59 097 6 gusting 11 30.0
2019-Oct-14 18:49 105 5 gusting 12 30.0
2019-Oct-14 18:44 077 5 gusting 10 30.0
2019-Oct-14 18:29 108 3 gusting 10 31.1
2019-Oct-14 18:19 095 5 gusting 10 30.6
2019-Oct-14 18:04 102 5 gusting 11 30.6
2019-Oct-14 17:59 087 5 gusting 10 30.6
2019-Oct-14 17:54 058 2 gusting 7 31.1
2019-Oct-14 17:39 083 4 gusting 11 30.6
2019-Oct-14 17:34 115 5 gusting 10 31.1
2019-Oct-14 17:29 049 4 gusting 12 30.6
2019-Oct-14 17:19 079 4 gusting 7 31.1
2019-Oct-14 17:14 086 5 gusting 11 30.6
2019-Oct-14 17:04 078 4 gusting 8 30.6
2019-Oct-14 16:59 107 3 gusting 11 30.6
2019-Oct-14 16:49 109 3 gusting 7 30.6
2019-Oct-14 16:44 078 6 gusting 10 30.0
2019-Oct-14 16:39 089 5 gusting 8 30.0
2019-Oct-14 16:34 093 5 gusting 10 30.6
2019-Oct-14 16:29 087 4 gusting 10 30.0
2019-Oct-14 16:24 116 6 gusting 10 30.6
2019-Oct-14 16:19 067 4 gusting 10 31.1
2019-Oct-14 16:14 080 4 gusting 11 30.0
2019-Oct-14 16:09 113 6 gusting 10 30.6
2019-Oct-14 16:04 097 4 gusting 10 30.6
2019-Oct-14 15:59 107 3 gusting 10 30.0
2019-Oct-14 15:54 054 4 gusting 10 30.6
2019-Oct-14 15:49 082 4 gusting 10 30.0
2019-Oct-14 15:34 125 5 gusting 10 30.0
2019-Oct-14 15:29 088 5 gusting 10 30.0
2019-Oct-14 15:24 110 5 gusting 8 30.6
2019-Oct-14 15:19 096 3 gusting 8 30.6
2019-Oct-14 15:04 086 4 gusting 7 30.6
2019-Oct-14 14:59 073 4 gusting 6 30.6
2019-Oct-14 14:54 103 4 gusting 7 30.6
2019-Oct-14 14:49 102 4 gusting 7 30.0
2019-Oct-14 14:39 099 4 gusting 10 30.0
2019-Oct-14 14:19 097 5 gusting 10 29.4
2019-Oct-14 14:14 101 5 gusting 7 30.0
2019-Oct-14 14:09 054 2 gusting 6 30.0
2019-Oct-14 14:04 105 3 gusting 6 29.4
2019-Oct-14 13:59 089 2 gusting 6 29.4
2019-Oct-14 13:49 092 1 gusting 6 28.9
2019-Oct-14 13:44 087 1 gusting 5 28.9
2019-Oct-14 13:39 089 1 gusting 6 28.3
2019-Oct-14 13:34 059 1 gusting 6 28.3
2019-Oct-14 13:19 025 2 gusting 5 27.2
2019-Oct-14 13:14 030 1 gusting 5 27.2
2019-Oct-14 13:09 078 2 gusting 6 26.7
2019-Oct-14 13:04 078 1 gusting 2 26.1
2019-Oct-14 12:59 065 1 gusting 2 25.6
2019-Oct-14 12:49 056 25.0
2019-Oct-14 12:44 100 24.4
2019-Oct-14 12:34 093 24.4
2019-Oct-14 12:29 092 23.9
2019-Oct-14 12:14 092 23.9
2019-Oct-14 12:09 092 23.9
2019-Oct-14 11:59 092 23.9
2019-Oct-14 11:54 092 23.9
2019-Oct-14 11:49 092 23.9
2019-Oct-14 11:44 092 23.9
2019-Oct-14 11:39 092 23.9
2019-Oct-14 11:34 092 23.9
2019-Oct-14 11:29 092 23.9
2019-Oct-14 11:19 092 23.9
2019-Oct-14 11:14 092 23.9
2019-Oct-14 11:04 092 23.9
2019-Oct-14 10:59 092 23.9
2019-Oct-14 10:54 092 23.9
2019-Oct-14 10:39 092 24.4
2019-Oct-14 10:34 092 24.4
2019-Oct-14 10:19 094 24.4
2019-Oct-14 10:14 094 24.4
2019-Oct-14 10:09 094 25.0
2019-Oct-14 09:59 094 25.0
2019-Oct-14 09:54 094 0 gusting 2 25.0
2019-Oct-14 09:49 092 25.0
2019-Oct-14 09:39 092 25.0
2019-Oct-14 09:34 092 25.0
2019-Oct-14 09:29 092 25.0
2019-Oct-14 09:19 092 25.0
2019-Oct-14 09:14 092 25.6
2019-Oct-14 09:04 093 25.6
2019-Oct-14 08:59 093 25.6
2019-Oct-14 08:49 093 25.6
2019-Oct-14 08:44 093 25.6
2019-Oct-14 08:39 093 25.6
2019-Oct-14 08:24 093 25.6
2019-Oct-14 08:19 093 25.6
2019-Oct-14 08:14 093 25.6
2019-Oct-14 08:04 093 25.6
2019-Oct-14 07:59 094 0 gusting 2 26.1
2019-Oct-14 07:54 094 26.1
2019-Oct-14 07:49 094 0 gusting 2 26.1
2019-Oct-14 07:39 088 26.1
2019-Oct-14 07:29 090 1 gusting 6 26.1
2019-Oct-14 07:24 139 1 gusting 4 26.7
2019-Oct-14 07:19 094 1 gusting 2 26.1
2019-Oct-14 07:09 100 2 gusting 4 26.1
2019-Oct-14 06:59 107 1 gusting 5 26.7
2019-Oct-14 06:39 111 1 gusting 4 26.7
2019-Oct-14 06:29 098 4 gusting 6 26.7
2019-Oct-14 06:24 104 2 gusting 6 26.7
2019-Oct-14 06:19 118 1 gusting 6 26.7
2019-Oct-14 06:09 096 2 gusting 5 26.7
2019-Oct-14 06:04 106 2 gusting 6 26.7
2019-Oct-14 05:59 137 3 gusting 6 26.7
2019-Oct-14 05:54 114 2 gusting 6 26.7
2019-Oct-14 05:44 108 2 gusting 6 26.7
2019-Oct-14 05:39 121 2 gusting 6 27.2
2019-Oct-14 05:34 114 2 gusting 6 27.2
2019-Oct-14 05:29 077 2 gusting 6 26.7
2019-Oct-14 05:19 092 2 gusting 6 26.7
2019-Oct-14 05:14 095 2 gusting 7 26.7
2019-Oct-14 04:59 088 3 gusting 6 27.2
2019-Oct-14 04:54 099 3 gusting 8 27.2
2019-Oct-14 04:49 100 5 gusting 8 27.2
2019-Oct-14 04:44 104 3 gusting 6 27.2
2019-Oct-14 04:39 090 2 gusting 5 27.2
2019-Oct-14 04:29 087 2 gusting 6 26.7
2019-Oct-14 04:24 110 0 gusting 2 27.2
2019-Oct-14 04:19 086 2 gusting 6 27.2
2019-Oct-14 04:14 111 1 gusting 6 27.2
2019-Oct-14 04:04 103 2 gusting 6 27.2